Location: Quedlinburg
(51.7921°N, 11.1414°E)
Time: 20:27:54
(UTC+02:00)

CUBESAT XI-V - Pass Details

Date: 23 March 2026
Orbit: 643 x 664 km, 98.3° (Epoch: 14 April)

Event Time Altitude Azimuth Distance (km) Brightness Sun altitude
Exits shadow 03:45:00 40° 302° (WNW) 960 ? -22.2°
Drops below altitude 10° 03:48:18 10° 336° (NNW) 2,061 ? -21.8°
Sets 03:50:35 0° 342° (NNW) 2,974 ? -21.5°
